Location: B?lite?ti
(46.2833°N, 22.7333°E)
Time: 16:13:46
(UTC+00:00)

ISS - Pass Details

Date: 24 January 2021
Orbit: 417 x 421 km, 51.6° (Epoch: 01 March)

Event Time Altitude Azimuth Distance (km) Brightness Sun altitude
Rises 16:08:11 0° 245° (WSW) 2,363 2.5 -8.2°
Reaches altitude 10° 16:10:17 10° 247° (WSW) 1,502 0.8 -8.5°
Maximum altitude 16:13:39 79° 334° (NNW) 434 -3.7 -9.0°
Enters shadow 16:16:34 13° 61° (ENE) 1,319 -1.9 -9.5°
